FW4175 Weather Reports


Display with metric or nautical units.
time (UTC)temp
F
wind
direction
speed
MPH
gust
MPH
rain 1hr
in
rain 24hr
in
rain mn
in
humidity
%
barometer
mb
20260903131113 82 209 5.0 9.0 0.00 0.00 0.00 83 1015.6
20260903130609 81 182 4.0 8.0 0.00 0.00 0.00 85 1015.8
20260903125602 80 214 6.0 10.0 0.00 0.00 0.00 85 1015.9
20260903125056 80 205 7.0 9.0 0.00 0.00 0.00 86 1015.6
20260903124550 80 163 5.0 8.0 0.00 0.00 0.00 87 1015.8
20260903124045 79 181 4.0 7.0 0.00 0.00 0.00 88 1015.8
20260903123544 79 181 2.0 5.0 0.00 0.00 0.00 89 1015.9
20260903123043 79 190 3.0 8.0 0.00 0.00 0.00 89 1016.0
20260903122543 78 174 2.0 5.0 0.00 0.00 0.00 90 1015.8
20260903122043 78 159 3.0 7.0 0.00 0.00 0.00 89 1016.0
20260903121537 78 172 2.0 10.0 0.00 0.00 0.00 90 1016.1
20260903121033 78 156 4.0 7.0 0.00 0.00 0.00 91 1015.9
20260903120532 78 164 3.0 6.0 0.00 0.00 0.00 91 1016.0
20260903120027 78 177 3.0 7.0 0.00 0.00 0.00 91 1016.0
20260903115525 78 170 3.0 7.0 0.00 0.00 0.00 91 1015.8
20260903115020 77 172 4.0 5.0 0.00 0.00 0.00 91 1015.9
20260903114515 77 170 3.0 5.0 0.00 0.00 0.00 91 1015.8
20260903114011 77 152 3.0 6.0 0.00 0.00 0.00 91 1016.0
20260903113506 78 178 1.0 9.0 0.00 0.00 0.00 91 1015.9
20260903113002 78 189 3.0 8.0 0.00 0.00 0.00 91 1015.8
20260903112457 78 173 2.0 5.0 0.00 0.00 0.00 91 1016.1
20260903111957 78 170 0.0 6.0 0.00 0.00 0.00 91 1016.0
20260903111450 78 193 2.0 4.0 0.00 0.00 0.00 91 1015.8
20260903110941 78 146 3.0 6.0 0.00 0.00 0.00 91 1015.9
20260903110437 78 153 3.0 7.0 0.00 0.00 0.00 91 1016.0
20260903105931 78 174 2.0 5.0 0.00 0.00 0.00 91 1015.8
20260903105426 78 171 3.0 3.0 0.00 0.00 0.00 92 1015.7
20260903104926 78 178 2.0 6.0 0.00 0.00 0.00 92 1016.0
20260903104420 77 190 2.0 4.0 0.00 0.00 0.00 92 1015.7
20260903103917 77 168 1.0 3.0 0.00 0.00 0.00 93 1015.6
20260903103413 77 137 1.0 3.0 0.00 0.00 0.00 93 1015.9
20260903102908 77 227 0.0 2.0 0.00 0.00 0.00 93 1015.8
20260903102403 77 186 0.0 3.0 0.00 0.00 0.00 93 1015.8
20260903101902 78 159 3.0 4.0 0.00 0.00 0.00 92 1015.7
20260903101357 78 165 3.0 3.0 0.00 0.00 0.00 92 1015.9
20260903100853 78 151 2.0 4.0 0.00 0.00 0.00 93 1015.7
20260903100348 77 162 3.0 4.0 0.00 0.00 0.00 94 1015.7
20260903095844 77 149 2.0 2.0 0.00 0.00 0.00 95 1015.9
20260903095338 77 142 0.0 1.0 0.00 0.00 0.00 94 1015.9
20260903094834 77 142 0.0 2.0 0.00 0.00 0.00 93 1015.7
20260903094328 78 180 0.0 2.0 0.00 0.00 0.00 92 1015.9
20260903093824 78 154 0.0 1.0 0.00 0.00 0.00 90 1015.6
20260903093319 79 205 0.0 1.0 0.00 0.00 0.00 89 1015.4
20260903092814 79 164 0.0 2.0 0.00 0.00 0.00 89 1015.7
20260903092309 79 172 1.0 3.0 0.00 0.00 0.00 89 1015.6
20260903091807 79 153 2.0 3.0 0.00 0.00 0.00 88 1015.9
20260903091302 79 154 2.0 5.0 0.00 0.00 0.00 88 1015.8
20260903090757 80 157 1.0 4.0 0.00 0.00 0.00 88 1015.7
20260903090251 80 165 2.0 3.0 0.00 0.00 0.00 88 1015.9
20260903085749 80 180 3.0 7.0 0.00 0.00 0.00 87 1015.9
20260903085238 79 181 2.0 5.0 0.00 0.00 0.00 89 1015.8
20260903084736 80 172 1.0 5.0 0.00 0.00 0.00 89 1015.8
20260903084231 80 204 4.0 8.0 0.00 0.00 0.00 89 1015.6
20260903083727 80 182 4.0 5.0 0.00 0.00 0.00 90 1015.9
20260903083227 80 204 3.0 10.0 0.00 0.00 0.00 90 1016.3
20260903082720 79 215 1.0 4.0 0.00 0.00 0.00 91 1016.0
20260903082217 79 192 5.0 7.0 0.00 0.00 0.00 91 1016.0
20260903081716 79 176 3.0 6.0 0.00 0.00 0.00 92 1016.1
20260903081212 79 195 4.0 7.0 0.00 0.00 0.00 92 1016.0
20260903080708 78 184 3.0 5.0 0.00 0.00 0.00 93 1015.7
20260903080206 78 219 2.0 3.0 0.00 0.00 0.00 94 1015.5
20260903075705 78 200 1.0 2.0 0.00 0.00 0.00 94 1015.5
20260903075200 78 161 2.0 3.0 0.00 0.00 0.00 95 1015.6
20260903074659 78 142 0.0 2.0 0.00 0.00 0.00 95 1015.6
20260903074154 78 185 0.0 2.0 0.00 0.00 0.00 95 1015.7
20260903073649 78 173 0.0 3.0 0.00 0.00 0.00 95 1015.5
20260903073145 78 186 0.0 2.0 0.00 0.00 0.00 95 1015.4
20260903072641 78 174 1.0 3.0 0.00 0.00 0.00 95 1015.5
20260903072137 78 155 0.0 2.0 0.00 0.00 0.00 95 1015.9
20260903071633 78 195 0.0 2.0 0.00 0.00 0.00 95 1015.6
20260903071128 78 222 0.0 3.0 0.00 0.00 0.00 95 1015.7
20260903070628 78 203 1.0 2.0 0.00 0.00 0.00 95 1015.7
20260903070124 78 180 2.0 3.0 0.00 0.00 0.00 95 1015.9
20260903065623 78 174 2.0 2.0 0.00 0.00 0.00 94 1015.7
20260903065118 78 192 2.0 2.0 0.00 0.00 0.00 94 1015.8
20260903064612 78 201 0.0 2.0 0.00 0.00 0.00 94 1016.0
20260903064108 79 262 2.0 2.0 0.00 0.00 0.00 94 1015.9
20260903063603 79 218 2.0 2.0 0.00 0.00 0.00 94 1016.0
20260903063058 79 238 1.0 2.0 0.00 0.00 0.00 93 1015.8
20260903062554 79 199 1.0 2.0 0.00 0.00 0.00 93 1016.0
20260903062049 79 228 0.0 4.0 0.00 0.00 0.00 93 1015.8
20260903061543 79 247 1.0 3.0 0.00 0.00 0.00 92 1015.9
20260903061038 80 205 3.0 5.0 0.00 0.00 0.00 92 1016.1
20260903060538 80 216 4.0 5.0 0.00 0.00 0.00 92 1016.1
20260903060033 80 191 2.0 5.0 0.00 0.00 0.00 92 1016.1
20260903055530 80 191 0.0 4.0 0.00 0.00 0.00 92 1016.0
20260903055029 80 243 1.0 3.0 0.00 0.00 0.00 92 1015.7
20260903054524 80 183 2.0 6.0 0.00 0.00 0.00 91 1015.8
20260903054021 80 196 3.0 4.0 0.00 0.00 0.00 91 1016.1
20260903053520 80 179 3.0 4.0 0.00 0.00 0.00 91 1016.0
20260903053017 80 200 3.0 6.0 0.00 0.00 0.00 91 1016.0
20260903052512 80 238 3.0 5.0 0.00 0.00 0.00 91 1016.2
20260903052008 80 190 2.0 4.0 0.00 0.00 0.00 91 1016.2
20260903051502 80 136 0.0 6.0 0.00 0.00 0.00 91 1016.0
20260903050958 80 218 2.0 4.0 0.00 0.00 0.00 91 1016.0
20260903050456 80 173 1.0 4.0 0.00 0.00 0.00 91 1016.0
20260903045952 80 202 3.0 5.0 0.00 0.00 0.00 91 1015.9
20260903045447 80 194 3.0 4.0 0.00 0.00 0.00 91 1015.8
20260903044944 80 168 3.0 4.0 0.00 0.00 0.00 91 1015.6
20260903044439 80 184 0.0 3.0 0.00 0.00 0.00 91 1015.5
20260903043935 80 223 2.0 3.0 0.00 0.00 0.00 91 1015.4
20260903043431 80 171 1.0 2.0 0.00 0.00 0.00 91 1015.6
20260903042929 80 205 2.0 3.0 0.00 0.00 0.00 90 1015.7
20260903042425 81 221 0.0 3.0 0.00 0.00 0.00 90 1015.6
20260903041920 81 180 0.0 5.0 0.00 0.00 0.00 89 1015.7
20260903041416 81 196 2.0 5.0 0.00 0.00 0.00 89 1015.7
20260903040912 81 191 0.0 4.0 0.00 0.00 0.00 89 1015.6
20260903040411 81 206 2.0 3.0 0.00 0.00 0.00 89 1015.6
20260903035907 81 181 4.0 5.0 0.00 0.00 0.00 89 1015.7
20260903035403 82 177 2.0 5.0 0.00 0.00 0.00 88 1015.5
20260903034857 82 178 2.0 6.0 0.00 0.00 0.00 88 1015.5
20260903034352 82 193 2.0 5.0 0.00 0.00 0.00 87 1015.8
20260903033847 82 200 1.0 4.0 0.00 0.00 0.00 87 1015.7
20260903033343 82 209 3.0 5.0 0.00 0.00 0.00 87 1015.8
20260903032842 82 220 4.0 5.0 0.00 0.00 0.00 87 1015.5
20260903032338 83 180 3.0 5.0 0.00 0.00 0.00 86 1015.7
20260903031833 83 194 4.0 5.0 0.00 0.00 0.00 86 1015.6
20260903031333 83 229 1.0 6.0 0.00 0.00 0.00 85 1015.6
20260903030828 83 205 5.0 6.0 0.00 0.00 0.00 85 1015.6
20260903030324 83 196 4.0 8.0 0.00 0.00 0.00 84 1015.7
20260903025820 84 191 2.0 12.0 0.00 0.00 0.00 84 1015.5
20260903025315 84 189 5.0 10.0 0.00 0.00 0.00 84 1015.7
20260903024810 84 204 3.0 5.0 0.00 0.00 0.00 83 1015.6
20260903024309 84 211 8.0 10.0 0.00 0.00 0.00 83 1015.7
20260903023805 84 227 2.0 6.0 0.00 0.00 0.00 83 1015.5
20260903023300 84 202 3.0 6.0 0.00 0.00 0.00 83 1015.5
20260903022755 84 225 5.0 10.0 0.00 0.00 0.00 83 1015.7
20260903022253 84 172 3.0 7.0 0.00 0.00 0.00 84 1015.5
20260903021753 83 199 2.0 3.0 0.00 0.00 0.00 85 1015.7
20260903021248 83 201 2.0 4.0 0.00 0.00 0.00 85 1015.7
20260903020743 83 186 1.0 4.0 0.00 0.00 0.00 86 1015.6
20260903020237 82 162 1.0 2.0 0.00 0.00 0.00 87 1015.4
20260903015733 82 230 0.0 2.0 0.00 0.00 0.00 88 1015.6
20260903015228 82 240 0.0 1.0 0.00 0.00 0.00 87 1015.4
20260903014723 82 253 1.0 2.0 0.00 0.00 0.00 87 1015.5
20260903014223 82 162 0.0 3.0 0.00 0.00 0.00 88 1015.3
20260903013718 81 160 2.0 2.0 0.00 0.00 0.00 91 1015.3
20260903013217 80 145 2.0 3.0 0.00 0.00 0.00 92 1015.3
20260903012715 80 130 0.0 2.0 0.00 0.00 0.00 92 1015.2
20260903012210 81 135 0.0 0.0 0.00 0.00 0.00 91 1015.3
20260903011710 81 230 0.0 0.0 0.00 0.00 0.00 91 1015.2
20260903011204 81 230 0.0 0.0 0.00 0.00 0.00 90 1015.3
20260903010659 81 255 0.0 1.0 0.00 0.00 0.00 90 1015.4
20260903010159 81 235 0.0 2.0 0.00 0.00 0.00 90 1014.9
20260903005653 81 322 0.0 0.0 0.00 0.00 0.00 89 1015.2
20260903005148 82 323 0.0 1.0 0.00 0.00 0.00 89 1015.2
20260903004643 82 129 0.0 0.0 0.00 0.00 0.00 88 1014.8
20260903004138 82 147 0.0 0.0 0.00 0.00 0.00 88 1014.9
20260903003634 83 223 0.0 1.0 0.00 0.00 0.00 87 1014.8
20260903003129 83 230 0.0 2.0 0.00 0.00 0.00 86 1015.0
20260903002624 83 261 1.0 2.0 0.00 0.00 0.00 86 1015.2
20260903002118 83 226 2.0 3.0 0.00 0.00 0.00 85 1015.0
20260903001613 84 154 0.0 1.0 0.00 0.00 0.00 85 1014.9
20260903001112 85 142 0.0 0.0 0.00 0.00 0.00 82 1015.1
20260903000609 86 173 0.0 0.0 0.00 0.00 0.00 81 1014.8
20260903000108 86 205 0.0 1.0 0.00 0.00 0.00 79 1015.2
20260902235606 87 212 1.0 2.0 0.00 0.00 0.00 77 1015.1
20260902235102 88 326 0.0 2.0 0.00 0.00 0.00 75 1014.9
20260902234556 89 333 0.0 2.0 0.00 0.00 0.00 74 1015.0
20260902234054 89 204 0.0 1.0 0.00 0.00 0.00 72 1014.9
20260902233549 90 203 1.0 2.0 0.00 0.00 0.00 69 1014.7
20260902233044 89 213 1.0 2.0 0.00 0.00 0.00 70 1014.9
20260902232543 89 212 2.0 3.0 0.00 0.00 0.00 70 1015.0
20260902232037 90 210 2.0 7.0 0.00 0.00 0.00 69 1014.9
20260902231532 91 172 3.0 6.0 0.00 0.00 0.00 67 1014.5
20260902231027 90 218 3.0 7.0 0.00 0.00 0.00 67 1014.7
20260902230527 90 207 6.0 9.0 0.00 0.00 0.00 67 1014.6
20260902230021 90 157 3.0 14.0 0.00 0.00 0.00 67 1014.5
20260902225516 90 200 0.0 4.0 0.00 0.00 0.00 68 1014.6
20260902225010 90 183 0.0 4.0 0.00 0.00 0.00 68 1014.6
20260902224509 90 191 3.0 7.0 0.00 0.00 0.00 67 1014.5
20260902224005 90 166 2.0 6.0 0.00 0.00 0.00 67 1014.7
20260902223501 91 202 10.0 10.0 0.00 0.00 0.00 65 1014.8
20260902223000 91 196 7.0 7.0 0.00 0.00 0.00 65 1014.9
20260902222458 91 201 4.0 5.0 0.00 0.00 0.00 66 1014.7
20260902221957 92 194 3.0 5.0 0.00 0.00 0.00 66 1014.7
20260902221457 91 158 3.0 6.0 0.00 0.00 0.00 64 1014.9
20260902220948 91 129 0.0 4.0 0.00 0.00 0.00 66 1014.9
20260902220447 90 181 3.0 5.0 0.00 0.00 0.00 66 1014.7
20260902215942 91 164 2.0 5.0 0.00 0.00 0.00 66 1014.8
20260902215438 91 184 2.0 11.0 0.00 0.00 0.00 65 1015.0
20260902214934 91 226 2.0 7.0 0.00 0.00 0.00 65 1015.1
20260902214432 91 194 5.0 11.0 0.00 0.00 0.00 64 1015.2
20260902213926 91 183 5.0 9.0 0.00 0.00 0.00 65 1015.0
20260902213423 92 179 5.0 9.0 0.00 0.00 0.00 64 1014.8
20260902212921 92 175 3.0 9.0 0.00 0.00 0.00 62 1015.0
20260902212417 92 200 3.0 10.0 0.00 0.00 0.00 62 1014.8
20260902211914 92 132 2.0 7.0 0.00 0.00 0.00 64 1014.9
20260902211410 91 183 5.0 14.0 0.00 0.00 0.00 64 1014.9
20260902210905 91 176 5.0 7.0 0.00 0.00 0.00 65 1015.0
20260902210405 92 195 5.0 9.0 0.00 0.00 0.00 66 1015.1
20260902205903 91 185 4.0 5.0 0.00 0.00 0.00 67 1015.3
20260902205357 90 225 4.0 6.0 0.00 0.00 0.00 66 1015.4
20260902204854 91 12 1.0 5.0 0.00 0.00 0.00 65 1015.0
20260902204353 91 174 2.0 8.0 0.00 0.00 0.00 66 1015.1
20260902203848 92 164 3.0 6.0 0.00 0.00 0.00 64 1015.2
20260902203344 92 234 3.0 10.0 0.00 0.00 0.00 65 1015.2
20260902202838 92 125 2.0 7.0 0.00 0.00 0.00 64 1015.0
20260902202334 92 229 2.0 9.0 0.00 0.00 0.00 63 1015.1
20260902201830 92 208 7.0 8.0 0.00 0.00 0.00 63 1015.0
20260902201325 91 153 4.0 9.0 0.00 0.00 0.00 64 1015.2
20260902200820 91 170 3.0 10.0 0.00 0.00 0.00 62 1015.3
20260902200315 92 264 7.0 10.0 0.00 0.00 0.00 60 1015.2
20260902195810 93 177 3.0 15.0 0.00 0.00 0.00 62 1015.2
20260902195309 92 161 3.0 9.0 0.00 0.00 0.00 65 1015.4
20260902194804 91 177 7.0 7.0 0.00 0.00 0.00 65 1015.3
20260902194259 91 180 6.0 14.0 0.00 0.00 0.00 64 1015.3
20260902193754 92 173 3.0 9.0 0.00 0.00 0.00 66 1015.1
20260902193250 92 204 4.0 13.0 0.00 0.00 0.00 65 1015.4
20260902192749 91 168 4.0 11.0 0.00 0.00 0.00 67 1015.4
20260902192248 91 156 4.0 9.0 0.00 0.00 0.00 66 1015.7
20260902191747 92 165 7.0 9.0 0.00 0.00 0.00 65 1015.6
20260902191243 91 155 4.0 8.0 0.00 0.00 0.00 66 1015.6
20260902190738 91 88 3.0 6.0 0.00 0.00 0.00 68 1015.7
20260902190237 91 180 3.0 5.0 0.00 0.00 0.00 66 1015.8
20260902185733 91 150 3.0 6.0 0.00 0.00 0.00 67 1015.9
20260902185229 92 188 4.0 9.0 0.00 0.00 0.00 65 1015.7
20260902184725 93 137 7.0 17.0 0.00 0.00 0.00 64 1015.4
20260902184220 92 183 5.0 11.0 0.00 0.00 0.00 65 1015.7
20260902183716 92 146 9.0 12.0 0.00 0.00 0.00 63 1015.6
20260902183212 92 145 5.0 11.0 0.00 0.00 0.00 66 1015.8
20260902182708 92 151 8.0 13.0 0.00 0.00 0.00 64 1015.7
20260902182205 92 161 10.0 10.0 0.00 0.00 0.00 64 1016.0
20260902181700 91 156 5.0 8.0 0.00 0.00 0.00 67 1016.0
20260902181200 91 180 6.0 8.0 0.00 0.00 0.00 65 1016.2
20260902180654 91 161 2.0 8.0 0.00 0.00 0.00 68 1016.0
20260902180150 91 174 6.0 7.0 0.00 0.00 0.00 66 1016.1
20260902175649 90 164 5.0 12.0 0.00 0.00 0.00 66 1015.9
20260902175146 90 174 3.0 12.0 0.00 0.00 0.00 66 1016.1
20260902174641 90 129 11.0 11.0 0.00 0.00 0.00 65 1015.8
20260902174137 90 139 9.0 15.0 0.00 0.00 0.00 66 1016.1
20260902173632 90 123 7.0 8.0 0.00 0.00 0.00 66 1016.1
20260902173127 90 151 9.0 13.0 0.00 0.00 0.00 67 1016.0
20260902172620 91 176 8.0 13.0 0.00 0.00 0.00 66 1015.8
20260902172115 91 134 7.0 9.0 0.00 0.00 0.00 69 1015.9
20260902171611 90 163 6.0 8.0 0.00 0.00 0.00 68 1015.9
20260902171107 90 148 12.0 12.0 0.00 0.00 0.00 67 1015.9
20260902170602 89 114 3.0 10.0 0.00 0.00 0.00 68 1016.1
20260902170058 89 135 6.0 12.0 0.00 0.00 0.00 70 1016.2
20260902165557 89 163 5.0 10.0 0.00 0.00 0.00 71 1016.2
20260902165052 89 197 5.0 8.0 0.00 0.00 0.00 71 1016.3
20260902164547 88 198 7.0 12.0 0.00 0.00 0.00 71 1016.3
20260902164046 88 189 4.0 6.0 0.00 0.00 0.00 73 1016.4
20260902163542 87 159 5.0 11.0 0.00 0.00 0.00 69 1016.4
20260902163039 88 147 5.0 11.0 0.00 0.00 0.00 69 1016.3
20260902162534 87 173 6.0 10.0 0.00 0.00 0.00 70 1016.6
20260902162029 87 135 4.0 8.0 0.00 0.00 0.00 75 1016.7
20260902161524 86 158 5.0 9.0 0.00 0.00 0.00 71 1016.7
20260902161020 86 143 5.0 9.0 0.00 0.00 0.00 71 1016.6
20260902160515 86 171 3.0 7.0 0.00 0.00 0.00 73 1016.7
20260902160016 86 200 4.0 5.0 0.00 0.00 0.00 74 1016.7
20260902155509 86 218 3.0 7.0 0.00 0.00 0.00 74 1016.9
20260902155008 86 205 7.0 7.0 0.00 0.00 0.00 74 1017.0
20260902154503 85 172 3.0 5.0 0.00 0.00 0.00 75 1016.7
20260902153958 85 207 3.0 8.0 0.00 0.00 0.00 76 1016.8
20260902153455 85 155 2.0 5.0 0.00 0.00 0.00 75 1017.0
20260902152951 85 219 3.0 6.0 0.00 0.00 0.00 75 1017.1
20260902152442 84 178 3.0 6.0 0.00 0.00 0.00 76 1016.9
20260902151937 85 190 3.0 7.0 0.00 0.00 0.00 76 1017.1
20260902151433 84 157 3.0 5.0 0.00 0.00 0.00 77 1016.9
20260902150932 84 180 3.0 6.0 0.00 0.00 0.00 80 1016.8
20260902150429 83 165 5.0 7.0 0.00 0.00 0.00 77 1016.9
20260902145928 83 223 3.0 6.0 0.00 0.00 0.00 78 1016.7
20260902145424 83 214 2.0 5.0 0.00 0.00 0.00 80 1017.1
20260902144919 83 221 2.0 5.0 0.00 0.00 0.00 79 1017.2
20260902144415 82 240 3.0 6.0 0.00 0.00 0.00 79 1017.4
20260902143914 82 229 2.0 5.0 0.00 0.00 0.00 81 1017.2
20260902143410 81 206 2.0 7.0 0.00 0.00 0.00 81 1017.1
20260902142905 81 183 3.0 7.0 0.00 0.00 0.00 81 1017.3
20260902142401 81 187 3.0 6.0 0.00 0.00 0.00 81 1017.2
20260902141856 81 239 1.0 5.0 0.00 0.00 0.00 82 1017.2
20260902141352 81 235 4.0 5.0 0.00 0.00 0.00 84 1017.1
20260902140851 80 196 2.0 6.0 0.00 0.00 0.00 84 1017.3
20260902140346 80 204 3.0 4.0 0.00 0.00 0.00 84 1017.3
20260902135846 80 220 3.0 5.0 0.00 0.00 0.00 84 1017.2
20260902135342 80 196 3.0 4.0 0.00 0.00 0.00 85 1017.2
20260902134841 80 198 4.0 5.0 0.00 0.00 0.00 84 1017.5
20260902134336 80 223 3.0 5.0 0.00 0.00 0.00 83 1017.5
20260902133831 80 204 7.0 11.0 0.00 0.00 0.00 82 1017.5
20260902133331 80 196 5.0 6.0 0.00 0.00 0.00 82 1017.6
20260902132826 79 203 4.0 7.0 0.00 0.00 0.00 84 1017.6
20260902132321 79 218 4.0 5.0 0.00 0.00 0.00 84 1017.8
20260902131817 78 235 0.0 6.0 0.00 0.00 0.00 86 1017.8
20260902131308 77 215 2.0 4.0 0.00 0.00 0.00 87 1017.6